Year,Month,Day,Hour,Minute,Value (Times are PST for temperature in C)
2018,06,04,00,46,10.40
2018,06,04,00,47,10.40
2018,06,04,00,48,10.40
2018,06,04,00,49,10.40
2018,06,04,00,50,10.40
2018,06,04,00,51,10.40
2018,06,04,00,52,10.40
2018,06,04,00,53,10.40
2018,06,04,00,54,10.40
2018,06,04,00,55,10.40
2018,06,04,00,56,10.30
2018,06,04,00,57,10.30
2018,06,04,00,58,10.40
2018,06,04,00,59,10.40
2018,06,04,01,00,10.40
2018,06,04,01,01,10.40
2018,06,04,01,02,10.40
2018,06,04,01,03,10.30
2018,06,04,01,04,10.30
2018,06,04,01,05,10.30
2018,06,04,01,06,10.30
2018,06,04,01,07,10.30
2018,06,04,01,08,10.30
2018,06,04,01,09,10.30
2018,06,04,01,10,10.30
2018,06,04,01,11,10.30
2018,06,04,01,12,10.30
2018,06,04,01,13,10.30
2018,06,04,01,14,10.30
2018,06,04,01,15,10.30
2018,06,04,01,16,10.30
2018,06,04,01,17,10.30
2018,06,04,01,18,10.30
2018,06,04,01,19,10.30
2018,06,04,01,20,10.30
2018,06,04,01,21,10.30
2018,06,04,01,22,10.30
2018,06,04,01,23,10.30
2018,06,04,01,24,10.20
2018,06,04,01,25,10.20
2018,06,04,01,26,10.20
2018,06,04,01,27,10.20
2018,06,04,01,28,10.20
2018,06,04,01,29,10.20
2018,06,04,01,30,10.20
2018,06,04,01,31,10.20
2018,06,04,01,32,10.20
2018,06,04,01,33,10.20
2018,06,04,01,34,10.20
2018,06,04,01,35,10.20
2018,06,04,01,36,10.20
2018,06,04,01,37,10.20
2018,06,04,01,38,10.20
2018,06,04,01,39,10.20
2018,06,04,01,40,10.20
2018,06,04,01,41,10.20
2018,06,04,01,42,10.20
2018,06,04,01,43,10.20
2018,06,04,01,44,10.20
2018,06,04,01,45,10.20
2018,06,04,01,46,10.10
2018,06,04,01,47,10.10
2018,06,04,01,48,10.10
2018,06,04,01,49,10.10
2018,06,04,01,50,10.10
2018,06,04,01,51,10.10
2018,06,04,01,52,10.10
2018,06,04,01,53,10.10
2018,06,04,01,54,10.10
2018,06,04,01,55,10.10
2018,06,04,01,56,10.20
2018,06,04,01,57,10.20
2018,06,04,01,58,10.20
2018,06,04,01,59,10.20
2018,06,04,02,00,10.20
2018,06,04,02,01,10.10
2018,06,04,02,02,10.10
2018,06,04,02,03,10.10
2018,06,04,02,04,10.10
2018,06,04,02,05,10.10
2018,06,04,02,06,10.10
2018,06,04,02,07,10.10
2018,06,04,02,08,10.10
2018,06,04,02,09,10.10
2018,06,04,02,10,10.10
2018,06,04,02,11,10.10
2018,06,04,02,12,10.10
2018,06,04,02,13,10.10
2018,06,04,02,14,10.10
2018,06,04,02,15,10.00
2018,06,04,02,16,10.00
2018,06,04,02,17,10.00
2018,06,04,02,18,10.00
2018,06,04,02,19,10.00
2018,06,04,02,20,10.00
2018,06,04,02,21,10.00
2018,06,04,02,22,10.00
2018,06,04,02,23,10.00
2018,06,04,02,24,10.00
2018,06,04,02,25,10.00
2018,06,04,02,26,10.00
2018,06,04,02,27,10.00
2018,06,04,02,28,9.90
2018,06,04,02,29,9.90
2018,06,04,02,30,9.90
2018,06,04,02,31,9.90
2018,06,04,02,32,9.90
2018,06,04,02,33,9.90
2018,06,04,02,34,9.90
2018,06,04,02,35,9.90
2018,06,04,02,36,9.90
2018,06,04,02,37,9.90
2018,06,04,02,38,9.90
2018,06,04,02,39,9.90
2018,06,04,02,40,9.90
2018,06,04,02,41,9.90
2018,06,04,02,42,9.90
2018,06,04,02,43,9.90
2018,06,04,02,44,9.90
2018,06,04,02,45,9.80
2018,06,04,02,46,9.80
2018,06,04,02,47,9.80
2018,06,04,02,48,9.80
2018,06,04,02,49,9.80
2018,06,04,02,50,9.80
2018,06,04,02,51,9.80
2018,06,04,02,52,9.80
2018,06,04,02,53,9.80
2018,06,04,02,54,9.80
2018,06,04,02,55,9.80
2018,06,04,02,56,9.90
2018,06,04,02,57,9.90
2018,06,04,02,58,9.90
2018,06,04,02,59,9.90
2018,06,04,03,00,9.90
2018,06,04,03,01,9.90
2018,06,04,03,02,9.90
2018,06,04,03,03,9.90
2018,06,04,03,04,9.90
2018,06,04,03,05,9.90
2018,06,04,03,06,9.90
2018,06,04,03,07,9.90
2018,06,04,03,08,9.90
2018,06,04,03,09,9.90
2018,06,04,03,10,9.90
2018,06,04,03,11,9.90
2018,06,04,03,12,9.80
2018,06,04,03,13,9.80
2018,06,04,03,14,9.80
2018,06,04,03,15,9.80
2018,06,04,03,16,9.80
2018,06,04,03,17,9.80
2018,06,04,03,18,9.80
2018,06,04,03,19,9.80
2018,06,04,03,20,9.80
2018,06,04,03,21,9.80
2018,06,04,03,22,9.80
2018,06,04,03,23,9.80
2018,06,04,03,24,9.80
2018,06,04,03,25,9.80
2018,06,04,03,26,9.80
2018,06,04,03,27,9.80
2018,06,04,03,28,9.80
2018,06,04,03,29,9.80
2018,06,04,03,30,9.90
2018,06,04,03,31,9.90
2018,06,04,03,32,9.90
2018,06,04,03,33,9.90
2018,06,04,03,34,9.90
2018,06,04,03,35,9.90
2018,06,04,03,36,9.90
2018,06,04,03,37,9.90
2018,06,04,03,38,9.90
2018,06,04,03,39,9.90
2018,06,04,03,40,9.90
2018,06,04,03,41,9.90
2018,06,04,03,42,9.80
2018,06,04,03,43,9.90
2018,06,04,03,44,9.90
2018,06,04,03,45,9.90
2018,06,04,03,46,9.80
2018,06,04,03,47,9.80
2018,06,04,03,48,9.80
2018,06,04,03,49,9.80
2018,06,04,03,50,9.80
2018,06,04,03,51,9.80
2018,06,04,03,52,9.80
2018,06,04,03,53,9.80
2018,06,04,03,54,9.70
2018,06,04,03,55,9.70
2018,06,04,03,56,9.70
2018,06,04,03,57,9.70
2018,06,04,03,58,9.70
2018,06,04,03,59,9.70
2018,06,04,04,00,9.70
2018,06,04,04,01,9.70
2018,06,04,04,02,9.70
2018,06,04,04,03,9.70
2018,06,04,04,04,9.70
2018,06,04,04,05,9.70
2018,06,04,04,06,9.70
2018,06,04,04,07,9.70
2018,06,04,04,08,9.70
2018,06,04,04,09,9.70
2018,06,04,04,10,9.70
2018,06,04,04,11,9.60
2018,06,04,04,12,9.60
2018,06,04,04,13,9.60
2018,06,04,04,14,9.60
2018,06,04,04,15,9.50
2018,06,04,04,16,9.50
2018,06,04,04,17,9.50
2018,06,04,04,18,9.50
2018,06,04,04,19,9.50
2018,06,04,04,20,9.50
2018,06,04,04,21,9.50
2018,06,04,04,22,9.40
2018,06,04,04,23,9.40
2018,06,04,04,24,9.40
2018,06,04,04,25,9.40
2018,06,04,04,26,9.30
2018,06,04,04,27,9.30
2018,06,04,04,28,9.30
2018,06,04,04,29,9.30
2018,06,04,04,30,9.20
2018,06,04,04,31,9.20
2018,06,04,04,32,9.20
2018,06,04,04,33,9.20
2018,06,04,04,34,9.10
2018,06,04,04,35,9.10
2018,06,04,04,36,9.10
2018,06,04,04,37,9.10
2018,06,04,04,38,9.10
2018,06,04,04,39,9.10
2018,06,04,04,40,9.10
2018,06,04,04,41,9.10
2018,06,04,04,42,8.90
2018,06,04,04,43,8.90
2018,06,04,04,44,8.90
2018,06,04,04,45,8.90
2018,06,04,04,46,8.90
2018,06,04,04,47,8.90
2018,06,04,04,48,8.90
2018,06,04,04,49,8.90
2018,06,04,04,50,8.90
2018,06,04,04,51,8.90
2018,06,04,04,52,8.80
2018,06,04,04,53,8.80
2018,06,04,04,54,8.80
2018,06,04,04,55,8.80
2018,06,04,04,56,8.80
2018,06,04,04,57,8.80
2018,06,04,04,58,8.80
2018,06,04,04,59,8.80
2018,06,04,05,00,8.80
2018,06,04,05,01,8.80
2018,06,04,05,02,8.80
2018,06,04,05,03,8.80
2018,06,04,05,04,8.80
2018,06,04,05,05,8.70
2018,06,04,05,06,8.70
2018,06,04,05,07,8.70
2018,06,04,05,08,8.70
2018,06,04,05,09,8.70
2018,06,04,05,10,8.70
2018,06,04,05,11,8.70
2018,06,04,05,12,8.70
2018,06,04,05,13,8.70
2018,06,04,05,14,8.70
2018,06,04,05,15,8.70
2018,06,04,05,16,8.60
2018,06,04,05,17,8.60
2018,06,04,05,18,8.50
2018,06,04,05,19,8.50
2018,06,04,05,20,8.50
2018,06,04,05,21,8.50
2018,06,04,05,22,8.50
2018,06,04,05,23,8.50
2018,06,04,05,24,8.50
2018,06,04,05,25,8.50
2018,06,04,05,26,8.40
2018,06,04,05,27,8.30
2018,06,04,05,28,8.30
2018,06,04,05,29,8.20
2018,06,04,05,30,8.20
2018,06,04,05,31,8.20
2018,06,04,05,32,8.10
2018,06,04,05,33,8.10
2018,06,04,05,34,8.00
2018,06,04,05,35,7.90
2018,06,04,05,36,7.80
2018,06,04,05,37,7.80
2018,06,04,05,38,7.70
2018,06,04,05,39,7.70
2018,06,04,05,40,7.70
2018,06,04,05,41,7.60
2018,06,04,05,42,7.60
2018,06,04,05,43,7.50
2018,06,04,05,44,7.40
2018,06,04,05,45,7.40
2018,06,04,05,46,7.40
2018,06,04,05,47,7.30
2018,06,04,05,48,7.30
2018,06,04,05,49,7.30
2018,06,04,05,50,7.40
2018,06,04,05,51,7.40
2018,06,04,05,52,7.40
2018,06,04,05,53,7.30
2018,06,04,05,54,7.30
2018,06,04,05,55,7.30
2018,06,04,05,56,7.30
2018,06,04,05,57,7.30
2018,06,04,05,58,7.30
2018,06,04,05,59,7.30
2018,06,04,06,00,7.30
2018,06,04,06,01,7.30
2018,06,04,06,02,7.30
2018,06,04,06,03,7.30
2018,06,04,06,04,7.30
2018,06,04,06,05,7.30
2018,06,04,06,06,7.30
2018,06,04,06,07,7.30
2018,06,04,06,08,7.30
2018,06,04,06,09,7.30
2018,06,04,06,10,7.20
2018,06,04,06,11,7.20
2018,06,04,06,12,7.20
2018,06,04,06,13,7.20
2018,06,04,06,14,7.20
2018,06,04,06,15,7.20
2018,06,04,06,16,7.40
2018,06,04,06,17,7.40
2018,06,04,06,18,7.40
2018,06,04,06,19,7.50
2018,06,04,06,20,7.60
2018,06,04,06,21,7.70
2018,06,04,06,22,7.70
2018,06,04,06,23,7.70
2018,06,04,06,24,7.80
2018,06,04,06,25,7.80
2018,06,04,06,26,7.90
2018,06,04,06,27,7.90
2018,06,04,06,28,7.90
2018,06,04,06,29,8.00
2018,06,04,06,30,8.10
2018,06,04,06,31,8.10
2018,06,04,06,32,8.20
2018,06,04,06,33,8.20
2018,06,04,06,34,8.30
2018,06,04,06,35,8.30
2018,06,04,06,36,8.40
2018,06,04,06,37,8.40
2018,06,04,06,38,8.40
2018,06,04,06,39,8.40
2018,06,04,06,40,8.50
2018,06,04,06,41,8.60
2018,06,04,06,42,8.60
2018,06,04,06,43,8.70
2018,06,04,06,44,8.70
2018,06,04,06,45,8.70
2018,06,04,06,46,8.70
2018,06,04,06,47,8.80
2018,06,04,06,48,8.80
2018,06,04,06,49,8.80
2018,06,04,06,50,8.90
2018,06,04,06,51,9.00
2018,06,04,06,52,9.00
2018,06,04,06,53,9.10
2018,06,04,06,54,9.10
2018,06,04,06,55,9.20
2018,06,04,06,56,9.20
2018,06,04,06,57,9.40
2018,06,04,06,58,9.50
2018,06,04,06,59,9.60
2018,06,04,07,00,9.60
2018,06,04,07,01,9.70
2018,06,04,07,02,9.80
2018,06,04,07,03,9.90
2018,06,04,07,04,9.90
2018,06,04,07,05,9.90
2018,06,04,07,06,10.00
2018,06,04,07,07,10.10
2018,06,04,07,08,10.20
2018,06,04,07,09,10.30
2018,06,04,07,10,10.30
2018,06,04,07,11,10.30
2018,06,04,07,12,10.40
2018,06,04,07,13,10.40
2018,06,04,07,14,10.40
2018,06,04,07,15,10.50
2018,06,04,07,16,10.50
2018,06,04,07,17,10.60
2018,06,04,07,18,10.70
2018,06,04,07,19,10.70
2018,06,04,07,20,10.80
2018,06,04,07,21,10.90
2018,06,04,07,22,10.90
2018,06,04,07,23,10.90
2018,06,04,07,24,11.00
2018,06,04,07,25,11.10
2018,06,04,07,26,11.10
2018,06,04,07,27,11.20
2018,06,04,07,28,11.20
2018,06,04,07,29,11.30
2018,06,04,07,30,11.40
2018,06,04,07,31,11.40
2018,06,04,07,32,11.40
2018,06,04,07,33,11.40
2018,06,04,07,34,11.50
2018,06,04,07,35,11.60
2018,06,04,07,36,11.60
2018,06,04,07,37,11.60
2018,06,04,07,38,11.60
2018,06,04,07,39,11.60
2018,06,04,07,40,11.60
2018,06,04,07,41,11.60
2018,06,04,07,42,11.60
2018,06,04,07,43,11.60
2018,06,04,07,44,11.50
2018,06,04,07,45,11.50
2018,06,04,07,46,11.50
2018,06,04,07,47,11.50
2018,06,04,07,48,11.50
2018,06,04,07,49,11.50
2018,06,04,07,50,11.50
2018,06,04,07,51,11.50
2018,06,04,07,52,11.50
2018,06,04,07,53,11.50
2018,06,04,07,54,11.50
2018,06,04,07,55,11.50
2018,06,04,07,56,11.50
2018,06,04,07,57,11.50
2018,06,04,07,58,11.50
2018,06,04,07,59,11.50
2018,06,04,08,00,11.50
2018,06,04,08,01,11.60
2018,06,04,08,02,11.60
2018,06,04,08,03,11.70
2018,06,04,08,04,11.70
2018,06,04,08,05,11.70
2018,06,04,08,06,11.70
2018,06,04,08,07,11.70
2018,06,04,08,08,11.70
2018,06,04,08,09,11.80
2018,06,04,08,10,12.30
2018,06,04,08,11,12.40
2018,06,04,08,12,12.40
2018,06,04,08,13,12.50
2018,06,04,08,14,12.50
2018,06,04,08,15,12.50
2018,06,04,08,16,12.60
2018,06,04,08,17,12.60
2018,06,04,08,18,12.70
2018,06,04,08,19,12.70
2018,06,04,08,20,12.70
2018,06,04,08,21,12.70
2018,06,04,08,22,12.80
2018,06,04,08,23,12.80
2018,06,04,08,24,12.80
2018,06,04,08,25,12.80
2018,06,04,08,26,12.80
2018,06,04,08,27,12.80
2018,06,04,08,28,12.90
2018,06,04,08,29,12.90
2018,06,04,08,30,13.00
2018,06,04,08,31,13.10
2018,06,04,08,32,13.10
2018,06,04,08,33,13.10
2018,06,04,08,34,13.10
2018,06,04,08,35,13.10
2018,06,04,08,36,13.00
2018,06,04,08,37,13.00
2018,06,04,08,38,13.00
2018,06,04,08,39,13.00
2018,06,04,08,40,13.00
2018,06,04,08,41,13.10
2018,06,04,08,42,13.10
2018,06,04,08,43,13.10
2018,06,04,08,44,13.20
2018,06,04,08,45,13.20
2018,06,04,08,46,13.20
2018,06,04,08,47,13.30
2018,06,04,08,48,13.30
2018,06,04,08,49,13.30
2018,06,04,08,50,13.30
2018,06,04,08,51,13.30
2018,06,04,08,52,13.30
2018,06,04,08,53,13.30
2018,06,04,08,54,13.30
2018,06,04,08,55,13.40
2018,06,04,08,56,13.40
2018,06,04,08,57,13.40
2018,06,04,08,58,13.40
2018,06,04,08,59,13.40
2018,06,04,09,00,13.50
2018,06,04,09,01,13.50
2018,06,04,09,02,13.60
2018,06,04,09,03,13.60
2018,06,04,09,04,13.50
2018,06,04,09,05,13.50
2018,06,04,09,06,13.50
2018,06,04,09,07,13.60
2018,06,04,09,08,13.60
2018,06,04,09,09,13.60
2018,06,04,09,10,13.60
2018,06,04,09,11,13.60
2018,06,04,09,12,13.70
2018,06,04,09,13,13.70
2018,06,04,09,14,13.70
2018,06,04,09,15,13.80
2018,06,04,09,16,13.80
2018,06,04,09,17,13.80
2018,06,04,09,18,13.80
2018,06,04,09,19,13.80
2018,06,04,09,20,13.80
2018,06,04,09,21,13.80
2018,06,04,09,22,13.80
2018,06,04,09,23,13.80
2018,06,04,09,24,13.80
2018,06,04,09,25,13.90
2018,06,04,09,26,13.90
2018,06,04,09,27,14.00
2018,06,04,09,28,14.00
2018,06,04,09,29,14.00
2018,06,04,09,30,14.00
2018,06,04,09,31,14.00
2018,06,04,09,32,14.00
2018,06,04,09,33,14.00
2018,06,04,09,34,14.00
2018,06,04,09,35,14.20
2018,06,04,09,36,14.20
2018,06,04,09,37,14.20
2018,06,04,09,38,14.20
2018,06,04,09,39,14.20
2018,06,04,09,40,14.20
2018,06,04,09,41,14.20
2018,06,04,09,42,14.20
2018,06,04,09,43,14.30
2018,06,04,09,44,14.30
2018,06,04,09,45,14.30
2018,06,04,09,46,14.30
2018,06,04,09,47,14.30
2018,06,04,09,48,14.30
2018,06,04,09,49,14.20
2018,06,04,09,50,14.20
2018,06,04,09,51,14.20
2018,06,04,09,52,14.20
2018,06,04,09,53,14.20
2018,06,04,09,54,14.20
2018,06,04,09,55,14.30
2018,06,04,09,56,14.30
2018,06,04,09,57,14.30
2018,06,04,09,58,14.40
2018,06,04,09,59,14.50
2018,06,04,10,00,14.50
2018,06,04,10,01,14.50
2018,06,04,10,02,14.50
2018,06,04,10,03,14.50
2018,06,04,10,04,14.60
2018,06,04,10,05,14.70
2018,06,04,10,06,14.70
2018,06,04,10,07,14.70
2018,06,04,10,08,14.60
2018,06,04,10,09,14.70
2018,06,04,10,10,14.70
2018,06,04,10,11,14.80
2018,06,04,10,12,14.80
2018,06,04,10,13,14.90
2018,06,04,10,14,14.90
2018,06,04,10,15,15.00
2018,06,04,10,16,15.00
2018,06,04,10,17,15.00
2018,06,04,10,18,14.90
2018,06,04,10,19,14.90
2018,06,04,10,20,14.90
2018,06,04,10,21,14.80
2018,06,04,10,22,14.80
2018,06,04,10,23,14.80
2018,06,04,10,24,14.80
2018,06,04,10,25,14.80
2018,06,04,10,26,14.80
2018,06,04,10,27,14.90
2018,06,04,10,28,15.00
2018,06,04,10,29,15.10
2018,06,04,10,30,15.20
2018,06,04,10,31,15.30
2018,06,04,10,32,15.30
2018,06,04,10,33,15.30
2018,06,04,10,34,15.30
2018,06,04,10,35,15.30
2018,06,04,10,36,15.30
2018,06,04,10,37,15.30
2018,06,04,10,38,15.40
2018,06,04,10,39,15.40
2018,06,04,10,40,15.30
2018,06,04,10,41,15.30
2018,06,04,10,42,15.30
2018,06,04,10,43,15.30
2018,06,04,10,44,15.30
2018,06,04,10,45,15.30
2018,06,04,10,46,15.30
2018,06,04,10,47,15.20
2018,06,04,10,48,15.20
2018,06,04,10,49,15.20
2018,06,04,10,50,15.20
2018,06,04,10,51,15.20
2018,06,04,10,52,15.30
2018,06,04,10,53,15.30
2018,06,04,10,54,15.30
2018,06,04,10,55,15.30
2018,06,04,10,56,15.30
2018,06,04,10,57,15.30
2018,06,04,10,58,15.40
2018,06,04,10,59,15.30
2018,06,04,11,00,15.30
2018,06,04,11,01,15.30
2018,06,04,11,02,15.40
2018,06,04,11,03,15.40
2018,06,04,11,04,15.40
2018,06,04,11,05,15.30
2018,06,04,11,06,15.30
2018,06,04,11,07,15.30
2018,06,04,11,08,15.40
2018,06,04,11,09,15.40
2018,06,04,11,10,15.50
2018,06,04,11,11,15.40
2018,06,04,11,12,15.40
2018,06,04,11,13,15.40
2018,06,04,11,14,15.40
2018,06,04,11,15,15.40
2018,06,04,11,16,15.40
2018,06,04,11,17,15.50
2018,06,04,11,18,15.60
2018,06,04,11,19,15.60
2018,06,04,11,20,15.70
2018,06,04,11,21,15.70
2018,06,04,11,22,15.70
2018,06,04,11,23,15.60
2018,06,04,11,24,15.50
2018,06,04,11,25,15.50
2018,06,04,11,26,15.60
2018,06,04,11,27,15.60
2018,06,04,11,28,15.60
2018,06,04,11,29,15.60
2018,06,04,11,30,15.70
2018,06,04,11,31,15.70
2018,06,04,11,32,15.60
2018,06,04,11,33,15.50
2018,06,04,11,34,15.50
2018,06,04,11,35,15.50
2018,06,04,11,36,15.50
2018,06,04,11,37,15.50
2018,06,04,11,38,15.50
2018,06,04,11,39,15.40
2018,06,04,11,40,15.40
2018,06,04,11,41,15.40
2018,06,04,11,42,15.50
2018,06,04,11,43,15.50
2018,06,04,11,44,15.60
2018,06,04,11,45,15.50
2018,06,04,11,46,15.50
2018,06,04,11,47,15.40
2018,06,04,11,48,15.50
2018,06,04,11,49,15.50
2018,06,04,11,50,15.60
2018,06,04,11,51,15.70
2018,06,04,11,52,15.70
2018,06,04,11,53,15.70
2018,06,04,11,54,15.80
2018,06,04,11,55,15.80
2018,06,04,11,56,15.90
2018,06,04,11,57,16.00
2018,06,04,11,58,16.10
2018,06,04,11,59,16.20
2018,06,04,12,00,16.30
2018,06,04,12,01,16.40
2018,06,04,12,02,16.50
2018,06,04,12,03,16.40
2018,06,04,12,04,16.40
2018,06,04,12,05,16.30
2018,06,04,12,06,16.10
2018,06,04,12,07,16.10
2018,06,04,12,08,16.00
2018,06,04,12,09,15.90
2018,06,04,12,10,15.90
2018,06,04,12,11,16.00
2018,06,04,12,12,16.10
2018,06,04,12,13,16.10
2018,06,04,12,14,16.10
2018,06,04,12,15,16.20
2018,06,04,12,16,16.20
2018,06,04,12,17,16.20
2018,06,04,12,18,16.20
2018,06,04,12,19,16.10
2018,06,04,12,20,16.10
2018,06,04,12,21,16.10
2018,06,04,12,22,16.10
2018,06,04,12,23,16.10
2018,06,04,12,24,16.10
2018,06,04,12,25,16.10
2018,06,04,12,26,16.10
2018,06,04,12,27,16.10
2018,06,04,12,28,16.10
2018,06,04,12,29,16.10
2018,06,04,12,30,16.00
2018,06,04,12,31,15.90
2018,06,04,12,32,15.90
2018,06,04,12,33,15.90
2018,06,04,12,34,16.10
2018,06,04,12,35,16.10
2018,06,04,12,36,16.20
2018,06,04,12,37,16.30
2018,06,04,12,38,16.40
2018,06,04,12,39,16.50
2018,06,04,12,40,16.60
2018,06,04,12,41,16.70
2018,06,04,12,42,16.90
2018,06,04,12,43,16.90
2018,06,04,12,44,17.00
2018,06,04,12,45,17.10
2018,06,04,12,46,17.00
2018,06,04,12,47,17.00
2018,06,04,12,48,17.00
2018,06,04,12,49,17.10
2018,06,04,12,50,17.10
2018,06,04,12,51,17.20
2018,06,04,12,52,17.30
2018,06,04,12,53,17.40
2018,06,04,12,54,17.40
2018,06,04,12,55,17.40
2018,06,04,12,56,17.30
2018,06,04,12,57,17.30
2018,06,04,12,58,17.30
2018,06,04,12,59,17.30
2018,06,04,13,00,17.30
2018,06,04,13,01,17.30
2018,06,04,13,02,17.30
2018,06,04,13,03,17.20
2018,06,04,13,04,17.20
2018,06,04,13,05,17.20
2018,06,04,13,06,17.30
2018,06,04,13,07,17.20
2018,06,04,13,08,17.30
2018,06,04,13,09,17.30
2018,06,04,13,10,17.20
2018,06,04,13,11,17.10
2018,06,04,13,12,17.00
2018,06,04,13,13,17.00
2018,06,04,13,14,17.00
2018,06,04,13,15,17.10
2018,06,04,13,16,17.20
2018,06,04,13,17,17.20
2018,06,04,13,18,17.30
2018,06,04,13,19,17.30
2018,06,04,13,20,17.30
2018,06,04,13,21,17.40
2018,06,04,13,22,17.50
2018,06,04,13,23,17.50
2018,06,04,13,24,17.40
2018,06,04,13,25,17.40
2018,06,04,13,26,17.40
2018,06,04,13,27,17.50
2018,06,04,13,28,17.50
2018,06,04,13,29,17.50
2018,06,04,13,30,17.40
2018,06,04,13,31,17.30
2018,06,04,13,32,17.30
2018,06,04,13,33,17.20
2018,06,04,13,34,17.10
2018,06,04,13,35,17.10
2018,06,04,13,36,17.10
2018,06,04,13,37,17.00
2018,06,04,13,38,16.90
2018,06,04,13,39,16.90
2018,06,04,13,40,16.80
2018,06,04,13,41,16.70
2018,06,04,13,42,16.70
2018,06,04,13,43,16.80
2018,06,04,13,44,16.90
2018,06,04,13,45,16.90
2018,06,04,13,46,16.90
2018,06,04,13,47,17.00
2018,06,04,13,48,17.10
2018,06,04,13,49,17.20
2018,06,04,13,50,17.30
2018,06,04,13,51,17.30
2018,06,04,13,52,17.30
2018,06,04,13,53,17.40
2018,06,04,13,54,17.40
2018,06,04,13,55,17.40
2018,06,04,13,56,17.40
2018,06,04,13,57,17.40
2018,06,04,13,58,17.30
2018,06,04,13,59,17.30
2018,06,04,14,00,17.40
2018,06,04,14,01,17.40
2018,06,04,14,02,17.50
2018,06,04,14,03,17.50
2018,06,04,14,04,17.40
2018,06,04,14,05,17.40
2018,06,04,14,06,17.50
2018,06,04,14,07,17.50
2018,06,04,14,08,17.40
2018,06,04,14,09,17.30
2018,06,04,14,10,17.30
2018,06,04,14,11,17.30
2018,06,04,14,12,17.30
2018,06,04,14,13,17.30
2018,06,04,14,14,17.30
2018,06,04,14,15,17.40
2018,06,04,14,16,17.40
2018,06,04,14,17,17.50
2018,06,04,14,18,17.50
2018,06,04,14,19,17.50
2018,06,04,14,20,17.40
2018,06,04,14,21,17.40
2018,06,04,14,22,17.30
2018,06,04,14,23,17.30
2018,06,04,14,24,17.30
2018,06,04,14,25,17.30
2018,06,04,14,26,17.30
2018,06,04,14,27,17.30
2018,06,04,14,28,17.30
2018,06,04,14,29,17.30
2018,06,04,14,30,17.30
2018,06,04,14,31,17.30
2018,06,04,14,32,17.30
2018,06,04,14,33,17.30
2018,06,04,14,34,17.40
2018,06,04,14,35,17.50
2018,06,04,14,36,17.60
2018,06,04,14,37,17.60
2018,06,04,14,38,17.50
2018,06,04,14,39,17.50
2018,06,04,14,40,17.60
2018,06,04,14,41,17.60
2018,06,04,14,42,17.60
2018,06,04,14,43,17.50
2018,06,04,14,44,17.40
2018,06,04,14,45,17.40
2018,06,04,14,46,17.50
2018,06,04,14,47,17.60
2018,06,04,14,48,17.70
2018,06,04,14,49,17.80
2018,06,04,14,50,17.80
2018,06,04,14,51,17.80
2018,06,04,14,52,17.70
2018,06,04,14,53,17.70
2018,06,04,14,54,17.50
2018,06,04,14,55,17.40
2018,06,04,14,56,17.20
2018,06,04,14,57,17.10
2018,06,04,14,58,17.10
2018,06,04,14,59,17.10
2018,06,04,15,00,17.20
2018,06,04,15,01,17.30
2018,06,04,15,02,17.40
2018,06,04,15,03,17.50
2018,06,04,15,04,17.60
2018,06,04,15,05,17.70
2018,06,04,15,06,17.80
2018,06,04,15,07,17.70
2018,06,04,15,08,17.70
2018,06,04,15,09,17.70
2018,06,04,15,10,17.80
2018,06,04,15,11,17.80
2018,06,04,15,12,17.80
2018,06,04,15,13,17.80
2018,06,04,15,14,17.80
2018,06,04,15,15,17.80
2018,06,04,15,16,17.90
2018,06,04,15,17,17.90
2018,06,04,15,18,17.90
2018,06,04,15,19,18.00
2018,06,04,15,20,18.10
2018,06,04,15,21,18.20
2018,06,04,15,22,18.20
2018,06,04,15,23,18.20
2018,06,04,15,24,18.20
2018,06,04,15,25,18.30
2018,06,04,15,26,18.30
2018,06,04,15,27,18.20
2018,06,04,15,28,18.20
2018,06,04,15,29,18.10
2018,06,04,15,30,17.90
2018,06,04,15,31,17.90
2018,06,04,15,32,17.80
2018,06,04,15,33,17.80
2018,06,04,15,34,17.70
2018,06,04,15,35,17.60
2018,06,04,15,36,17.50
2018,06,04,15,37,17.50
2018,06,04,15,38,17.50
2018,06,04,15,39,17.60
2018,06,04,15,40,17.60
2018,06,04,15,41,17.60
2018,06,04,15,42,17.60
2018,06,04,15,43,17.60
2018,06,04,15,44,17.60
2018,06,04,15,45,17.70
2018,06,04,15,46,17.70
2018,06,04,15,47,17.70
2018,06,04,15,48,17.60
2018,06,04,15,49,17.50
2018,06,04,15,50,17.50
2018,06,04,15,51,17.60
2018,06,04,15,52,17.60
2018,06,04,15,53,17.70
2018,06,04,15,54,17.70
2018,06,04,15,55,17.70
2018,06,04,15,56,17.80
2018,06,04,15,57,17.80
2018,06,04,15,58,17.80
2018,06,04,15,59,17.80
2018,06,04,16,00,17.70
2018,06,04,16,01,17.70
2018,06,04,16,02,17.70
2018,06,04,16,03,17.60
2018,06,04,16,04,17.60
2018,06,04,16,05,17.50
2018,06,04,16,06,17.50
2018,06,04,16,07,17.50
2018,06,04,16,08,17.60
2018,06,04,16,09,17.60
2018,06,04,16,10,17.60
2018,06,04,16,11,17.70
2018,06,04,16,12,17.70
2018,06,04,16,13,17.70
2018,06,04,16,14,17.80
2018,06,04,16,15,17.80
2018,06,04,16,16,17.90
2018,06,04,16,17,17.90
2018,06,04,16,18,17.90
2018,06,04,16,19,17.90
2018,06,04,16,20,17.90
2018,06,04,16,21,17.70
2018,06,04,16,22,17.70
2018,06,04,16,23,17.70
2018,06,04,16,24,17.70
2018,06,04,16,25,17.70
2018,06,04,16,26,17.80
2018,06,04,16,27,17.80
2018,06,04,16,28,17.90
2018,06,04,16,29,18.00
2018,06,04,16,30,18.10
2018,06,04,16,31,18.10
2018,06,04,16,32,18.10
2018,06,04,16,33,18.20
2018,06,04,16,34,18.20
2018,06,04,16,35,18.20
2018,06,04,16,36,18.10
2018,06,04,16,37,18.10
2018,06,04,16,38,18.10
2018,06,04,16,39,18.00
2018,06,04,16,40,17.90
2018,06,04,16,41,17.80
2018,06,04,16,42,17.80
2018,06,04,16,43,17.80
2018,06,04,16,44,17.70
2018,06,04,16,45,17.80
2018,06,04,16,46,17.80
2018,06,04,16,47,17.80
2018,06,04,16,48,17.90
2018,06,04,16,49,17.90
2018,06,04,16,50,17.80
2018,06,04,16,51,17.80
2018,06,04,16,52,17.80
2018,06,04,16,53,17.70
2018,06,04,16,54,17.70
2018,06,04,16,55,17.70
2018,06,04,16,56,17.70
2018,06,04,16,57,17.70
2018,06,04,16,58,17.70
2018,06,04,16,59,17.70
2018,06,04,17,00,17.60
2018,06,04,17,01,17.50
2018,06,04,17,02,17.50
2018,06,04,17,03,17.60
2018,06,04,17,04,17.60
2018,06,04,17,05,17.70
2018,06,04,17,06,17.70
2018,06,04,17,07,17.70
2018,06,04,17,08,17.70
2018,06,04,17,09,17.70
2018,06,04,17,10,17.70
2018,06,04,17,11,17.60
2018,06,04,17,12,17.50
2018,06,04,17,13,17.50
2018,06,04,17,14,17.50
2018,06,04,17,15,17.50
2018,06,04,17,16,17.50
2018,06,04,17,17,17.60
2018,06,04,17,18,17.70
2018,06,04,17,19,17.70
2018,06,04,17,20,17.60
2018,06,04,17,21,17.60
2018,06,04,17,22,17.60
2018,06,04,17,23,17.50
2018,06,04,17,24,17.50
2018,06,04,17,25,17.50
2018,06,04,17,26,17.50
2018,06,04,17,27,17.40
2018,06,04,17,28,17.40
2018,06,04,17,29,17.40
2018,06,04,17,30,17.50
2018,06,04,17,31,17.50
2018,06,04,17,32,17.50
2018,06,04,17,33,17.50
2018,06,04,17,34,17.60
2018,06,04,17,35,17.60
2018,06,04,17,36,17.60
2018,06,04,17,37,17.50
2018,06,04,17,38,17.50
2018,06,04,17,39,17.50
2018,06,04,17,40,17.40
2018,06,04,17,41,17.20
2018,06,04,17,42,16.90
2018,06,04,17,43,16.60
2018,06,04,17,44,16.40
2018,06,04,17,45,16.20
2018,06,04,17,46,16.10
2018,06,04,17,47,16.00
2018,06,04,17,48,16.00
2018,06,04,17,49,16.10
2018,06,04,17,50,16.00
2018,06,04,17,51,15.90
2018,06,04,17,52,15.90
2018,06,04,17,53,15.80
2018,06,04,17,54,15.80
2018,06,04,17,55,15.70
2018,06,04,17,56,15.60
2018,06,04,17,57,15.40
2018,06,04,17,58,15.20
2018,06,04,17,59,15.00
2018,06,04,18,00,14.90
2018,06,04,18,01,14.90
2018,06,04,18,02,14.80
2018,06,04,18,03,14.70
2018,06,04,18,04,14.50
2018,06,04,18,05,14.40
2018,06,04,18,06,14.20
2018,06,04,18,07,14.20
2018,06,04,18,08,14.20
2018,06,04,18,09,14.10
2018,06,04,18,10,14.00
2018,06,04,18,11,14.00
2018,06,04,18,12,13.90
2018,06,04,18,13,13.90
2018,06,04,18,14,13.90
2018,06,04,18,15,13.90
2018,06,04,18,16,13.90
2018,06,04,18,17,13.80